Location: Goettingen
(51.5300°N, 9.9433°E)
Time: 00:13:17
(UTC+01:00)

ISS - Pass Details

Date: 11 November 2018
Orbit: 402 x 409 km, 51.6° (Epoch: 14 November)

Event Time Altitude Azimuth Distance (km) Brightness Sun altitude
Exits shadow 05:08:45 38° 148° (SSE) 639 -2.6 -22.1°
Drops below altitude 10° 05:11:02 10° 123° (ESE) 1,461 -0.2 -21.8°
Sets 05:13:08 0° 119° (ESE) 2,320 1.1 -21.4°
